www.pogodaiklimat.ru

Погода и климат >> Архив погоды >> Мексика >> Hidalgo del Parral


ПОГОДА в Hidalgo del Parral

  • Прогноз погоды в Hidalgo del Parral
  • Монитор погоды в Hidalgo del Parral
  • Климат города

АРХИВ ПОГОДЫ в Hidalgo del Parral

Время (UTC), дата Ветер
(напр.,м/с)
 
Видим.   Явления Облачность Т
(С)
Тd
(С)
f
(%)
Тe
(С)
Тes
(С)
Комфортность P
(гПа)
Po
(гПа)
Тmin
(С)
Tmax
(С)
R
(мм)
R24
(мм)
S
(см)
18 10.12 ЮЗ 2 10 км 6/1 1200 м
[Sc Cs]
+12.8 +3.0 51 +12 +19 1034.0 834.2 +0.5 +13.0
21 10.12 В 2 10 км 3/0
[Cs]
+16.7 +2.9 40 +17 +23 1028.1 831.3
00 11.12 В 2 10 км 8/0
[Cs]
+14.8 +4.4 50 +15 +15 1025.5 831.3 +0.5 +17.6
03 11.12 ЮВ 3 1000 м 1/0
[Ci fib]
+10.0 +2.9 61 +8 +8 1024.9 832.3
12 11.12 СЗ 1 1000 м 5/0
[Cs]
+4.0 +2.4 89 +3 +3 1026.4 830.2 +3.5 +17.6
15 11.12 штиль 0 10 км 10/8 150 м
[Sc diur, vesp As trans]
+3.8 +2.6 92 +3 +3 1028.0 830.3
18 11.12 штиль 0 10 км 10/4 1020 м
[Sc As trans]
+13.0 +4.7 57 +13 +15 1028.4 830.9 +3.0 +13.5
21 11.12 С 1 10 км 10/4 1500 м
[Sc As trans]
+16.6 +4.0 43 +18 +19 1024.1 828.8
00 12.12 ЮВ 1 10 км 10/0 2000 м
[As trans Cs]
+16.3 +6.0 50 +17 +17 1020.8 827.9 +3.0 +18.1
03 12.12 штиль 0 1000 м 10/0 2000 м
[As trans Cs]
+11.0 +6.4 73 +11 +11 1021.2 829.5
12 12.12 СЗ 1 1000 м 8/8 200 м
[Sc diur, vesp]
+7.0 +5.1 88 +6 +6 1020.7 826.3 +6.5 +18.1
15 12.12 ЮЗ 1 10 км 10/8 360 м
[Sc As trans]
+7.2 +4.2 81 +6 +6 1022.4 827.0
18 12.12 СЗ 1 10 км 10/9 930 м
[Cb calv As trans]
+13.0 +5.1 59 +13 +14 1023.1 827.9 +6.5 +13.5
21 12.12 СЗ 2 10 км 10/10 1440 м
[Sc]
+14.8 +3.0 45 +15 +15 1018.8 825.4
00 13.12 Ю 4 10 км ясно +12.1 +4.3 59 +10 +10 1016.5 824.3 +6.5 +15.1
03 13.12 З 2 1000 м ясно +9.4 +4.4 71 +8 +8 1018.0 826.0
12 13.12 СЗ 2 1000 м ясно +6.2 -0.1 64 +4 +4 1020.3 825.4 +5.5 +15.1
15 13.12 СЗ 3 10 км ясно +7.0 -1.6 54 +5 +5 1023.4 827.4
21 13.12 СЗ 4 10 км ясно +15.8 -2.0 29 +15 +19 1021.9 828.1
00 14.12 С 4 10 км ясно +11.6 -4.0 33 +10 +10 1022.3 829.4 +5.5 +16.6
12 14.12 СЗ 1 1000 м ясно -1.8 -4.9 79 -4 -4 1033.4 833.5 -2.0 +16.6
15 14.12 ЮЗ 1 10 км ясно -0.4 -2.1 88 -2 -1 1036.4 834.2
21 14.12 С 2 10 км 4/0
[Ci fib]
+14.2 -17.9 9 +14 +20 1032.6 833.1
00 15.12 С 2 10 км 4/0
[Cs]
+12.5 -12.1 17 +12 +12 1029.2 832.7 -2.5 +14.4
12 15.12 штиль 0 1000 м ясно -3.0 -7.5 71 -4 -4 1031.9 832.1 -3.6 +14.4
15 15.12 штиль 0 1000 м 1/0 2000 м
[As trans]
-3.0 -9.5 61 -4 -2 1034.6 832.1
21 15.12 В 3 10 км 9/1 1170 м
[Sc diur, vesp Ac trans Cs]
+16.4 -8.3 18 +16 +19 1029.1 830.2
00 16.12 В 2 10 км 9/0 2000 м
[Ac trans Cs]
+14.4 -7.1 22 +14 +14 1026.2 830.6 -4.5 +16.8
12 16.12 штиль 0 1000 м 10/10 600 м
[Sc]
+4.4 -1.7 65 +4 +4 1029.2 832.1 +3.4 +16.8
15 16.12 Ю 1 10 км 10/10 900 м
[Sc diur, vesp]
+5.6 -1.9 58 +5 +5 1031.1 832.8
18 16.12 ЮЗ 1 10 км 10/8 1500 м
[Sc diur, vesp Cs]
+10.6 -4.0 36 +11 +12 1031.1 832.9 +3.4 +11.0
21 16.12 С 1 10 км 10/5 450 м
[Sc diur, vesp As trans]
+13.0 -5.2 28 +14 +15 1027.4 831.1
00 17.12 СВ 2 10 км 10/5 1500 м
[Sc As trans]
+11.4 -2.7 37 +11 +11 1026.3 831.3 +3.4 +13.0
03 17.12 СЗ 1 1000 м 10/10 1380 м
[Sc]
+8.8 -2.5 45 +9 +9 1027.5 833.0
12 17.12 штиль 0 1000 м ясно +3.0 -0.8 76 +2 +2 1026.6 830.3 +2.3 +13.0
15 17.12 С 1 10 км 1/0
[Ci fib]
+1.8 -1.6 78 0 +2 1029.7 831.7

 

Местоположение метеостанции Hidalgo del Parral (Мексика): широта 26.93 долгота -105.60 высота над уровнем моря 1661 м.

В архиве по умолчанию представлена погода в Hidalgo del Parral за последнюю неделю. Архивные данные за месяц целиком и за предыдущие месяцы, начиная с января 2011 года, Вы можете получить, выбрав интересующий диапазон дат из раскрывающегося списка и нажав кнопку "Ввод!".


*Определитесь, кто Вы:
робот инопланетянин человек

Внимание! Время в таблицах - всемирное. Для получения местного времени необходимо прибавить поправку, которая в Hidalgo del Parral равна -6 ч.

Смотрите также архив погоды в соседних городах и на ближайших метеорологических станциях:

Погода в Tepehuanes (Мексика) (177 км)
Погода в Chihuahua University (Мексика) (193 км)
Погода в Chihuahua (Мексика) (202 км)
Погода в Choix (Мексика) (259 км)
Погода в Torreon (Мексика) (269 км)
Погода в Culiacan (Мексика) (298 км)
Погода в Temosachic (Мексика) (312 км)
Погода в Durango (Мексика) (336 км)
Погода в Monclova (Мексика) (417 км)
Погода в Sombrerete (Мексика) (419 км)

Пояснения к столбцам:

Ветер - указаны скорость ветра в м/с - средняя за 10 мин, порывы в срок и между сроками (в фигурных скобках) и направление, откуда дует ветер: С - северный, СВ - северо-восточный, В - восточный, ЮВ - юго-восточный, Ю - южный, ЮЗ - юго-западный, З - западный, СЗ - северо-западный.
Видимость - горизонтальная дальность видимости в метрах или километрах. При видимости от 1 до 10 км при отсутствии осадков обычно наблюдается дымка, при ухудшении видимости до 1 км и менее - туман. В сухую погоду видимость может ухудшаться дымом, пылью или мглою.
Явления - указаны атмосферные явления, наблюдавшиеся в срок или в последний час перед сроком; фигурными скобками обозначены явления, наблюдавшиеся между сроками (за 1-3 часа до срока); квадратными скобками обозначены град или гололедные отложения с указанием их диаметра в мм.
Облачность - указаны через наклонную черту общая и нижняя облачность в баллах и высота нижней границы облаков в метрах; квадратными скобками обозначены формы облаков: Ci - перистые, Cs - перисто-слоистые, Cc - перисто-кучевые, Ac - высококучевые, As - высокослоистые, Sc - слоисто-кучевые, Ns - слоисто-дождевые, Cu - кучевые, Cb - кучево-дождевые. Подробнее классификацию облаков см. в Атласе облаков (PDF).
T - Температура воздуха - температура, измеренная на высоте 2 м над землей.
Td - Температура точки росы - температура, при понижении до которой содержащийся в воздухе водяной пар достигнет насыщения.
f - Относительная влажность воздуха - влажноcть воздуха, измеренная на высоте 2 м над землей.
Te - Эффективная температура - температура, которую ощущает одетый по сезону человек в тени. Характеристика душности погоды. При расчете учитывается влияние влажности воздуха и скорости ветра на теплоощущения человека.
Tes - Эффективная температура на солнце - температура, которую ощущает человек, с поправкой на солнечный нагрев. Характеристика знойности погоды. Зависит от высоты солнца над горизонтом, облачности и скорости ветра. Ночью, в пасмурную погоду, а также при ветре 12 м/с и более поправка равна нулю.
P - Атмосферное давление - приведенное к уровню моря атмосферное давление.
Po - Атмосферное давление - измеренное на уровне метеостанции атмосферное давление.
Tmin - Минимальная температура - минимум температуры воздуха на высоте 2 м над землей.
Tmax - Максимальная температура - максимум температуры воздуха на высоте 2 м над землей.
R - Количество осадков - Количество выпавших осадков за период времени, мм. При наведении курсора мыши на число - период времени, за который выпало указанное количество осадков.
R24 - Количество осадков - Количество выпавших осадков за 24 часа, мм.
S - Снежный покров - Высота снежного покрова, см. При наведении курсора мыши на число - состояние снежного покрова и степень покрытия местности в баллах.